Regional Weather Roundup
Issued by NWS

Home | Current Version | Previous Version | Text Only | Print | Product List | Glossary On
Versions: 1 2 3 4 5 6 7 8 9 10 11 12 13 14 15 16 17 18 19 20 21 22 23 24 25 26 27 28 29 30 31 32 33 34 35 36 37 38 39 40 41 42 43 44 45 46 47 48 49 50
000
ASUS43 KLSX 222057
RWRMO

WEATHER SUMMARY FOR MISSOURI
NATIONAL WEATHER SERVICE SPRINGFIELD MO
400 PM CDT SUN APR 22 2018

NOTE: "FAIR" INDICATES FEW OR NO CLOUDS BELOW 12,000 FEET WITH NO
       SIGNIFICANT WEATHER AND/OR OBSTRUCTIONS TO VISIBILITY.
       CURRENT SKY AND/OR WEATHER CONDITIONS ARE NOT AVAILABLE FOR
       CHILLICOTHE AND FARMINGTON.

MOZ001>031-035>038-043-044-053-054-222200-
...NORTHERN AND WESTERN MISSOURI...

CITY           SKY/WX    TMP DP  RH WIND       PRES   REMARKS
KANSAS CTY INT CLOUDY    64  42  44 NE10      30.08F
LEE`S SUMMIT   CLOUDY    60  47  61 NE10      30.07F
ST JOSEPH      SUNNY     67  44  43 E12       30.09F
CHILLICOTHE      N/A     68  42  38 NE13G26   30.09F

$$
MOZ066>068-077>081-088>096-101>105-222200-
...SOUTHWEST MISSOURI...

CITY           SKY/WX    TMP DP  RH WIND       PRES   REMARKS
SPRINGFIELD    CLOUDY    57  53  86 NE18      29.94S
JOPLIN         PTSUNNY   58  55  90 NE13G22   29.96F
BRANSON        CLOUDY    61  50  67 N9        29.92F

$$
MOZ032>034-039>042-045>050-055>058-069>072-222200-
...CENTRAL MISSOURI...

CITY           SKY/WX    TMP DP  RH WIND       PRES   REMARKS
COLUMBIA       NOT AVBL
JEFFERSON CITY LGT RAIN  59  47  64 NE6       30.04F
ROLLA          LGT RAIN  54  50  86 NE20G28   30.02F FOG
SEDALIA        CLOUDY    59  51  75 NE10      30.06F
OSAGE BEACH    LGT RAIN  55  54  94 NE9       30.02F

$$
MOZ051-052-059>065-222200-
...EAST CENTRAL MISSOURI...

CITY           SKY/WX    TMP DP  RH WIND       PRES   REMARKS
ST LOUIS INTL  CLOUDY    59  40  49 NE8       30.07F

$$
MOZ072>076-082>087-097>100-106>115-222200-
...SOUTH CENTRAL AND SOUTHEAST MISSOURI...

CITY           SKY/WX    TMP DP  RH WIND       PRES   REMARKS
CAPE GIRARDEAU LGT RAIN  57  55  93 E17       29.97F
POPLAR BLUFF   CLOUDY    58  56  93 E17G28    29.90F
WEST PLAINS    RAIN      53  52  96 N3        29.93F FOG

$$




USA.gov is the U.S. government's official web portal to all federal, state and local government web resources and services.